Ardabil, Iran

4:52 PM +0330 on October 17, 2019 (GMT +0330)
Ardabil

Weather History for OITL - September, 2019

Change the Weather History Date:

Saturday, September 21, 2019

  Actual Average (WUND) Record (WUND)
Temperature  
Mean Temperature 68 °F -  
Max Temperature 95 °F - - (-1)
Min Temperature 42 °F - - (-1)
Cooling Degree Days 4    
Growing Degree Days 18 (Base 50)    
Moisture  
Dew Point 45 °F    
Average Humidity 56    
Maximum Humidity 100    
Minimum Humidity 12    
Precipitation  
Precipitation 0.00 in - - ()
Sea Level Pressure  
Sea Level Pressure 29.88 in    
Wind  
Wind Speed 14 mph ()    
Max Wind Speed 38 mph    
Max Gust Speed 50 mph    
Visibility 4.7 miles    
Events Fog    
Averages and records for this station are not official NWS values.
T = Trace of Precipitation, MM = Missing Value Source: Averaged Metar Reports

Daily Weather History Graph

Daily Weather History Graph

Search for Another Location

Airport or City:

Astronomy

Sep. 21, 2019 Rise Set
Actual Time 7:02 AM +0430 7:15 PM +0430
Civil Twilight 6:36 AM +0430 7:42 PM +0430
Nautical Twilight 6:05 AM +0430 8:13 PM +0430
Astronomical Twilight 5:33 AM +0430 8:44 PM +0430
Moon 11:39 PM +0430 (9/21) 1:40 PM +0430 (9/21)
Length of Visible Light 13h 05m
Length of Day
12h 13m
Waning Gibbous, 58% of the Moon is Illuminated
Sep 21
Waning Gibbous
Sep 22
Last Quarter
Sep 28
New
Oct 5
First Quarter
Oct 14
Full

Hourly Weather History & Observations

Time (+0430) Temp. Windchill Dew Point Humidity Pressure Visibility Wind Dir Wind Speed Gust Speed Precip Events Conditions
12:20 AM 48.2 °F - 48.2 °F 100% 29.95 in 4.3 mi NE 4.6 mph - N/A Fog Fog
1:20 AM 46.4 °F 44.3 °F 46.4 °F 100% 29.95 in 4.3 mi West 4.6 mph - N/A Fog Fog
2:20 AM 46.4 °F 41.1 °F 46.4 °F 100% 29.92 in - WNW 11.5 mph - N/A   Clear
3:20 AM 42.8 °F 38.6 °F 42.8 °F 100% 29.92 in - ESE 6.9 mph - N/A   Clear
4:20 AM 44.6 °F 42.2 °F 42.8 °F 93% 29.89 in - NNE 4.6 mph - N/A   Clear
5:20 AM 48.2 °F - 44.6 °F 87% 29.92 in - NW 6.9 mph - N/A   Clear
6:20 AM 48.2 °F - 42.8 °F 82% 29.92 in - SSW 6.9 mph - N/A   Clear
6:30 AM 48.2 °F - 42.8 °F 82% 29.92 in - SSW 6.9 mph - N/A   Clear
7:24 AM 48.2 °F - 42.8 °F 82% 29.92 in - Calm Calm - N/A   Clear
7:30 AM 48.2 °F - 42.8 °F 82% 29.92 in - Calm Calm - N/A   Clear
8:20 AM 69.8 °F - 41.0 °F 35% 29.92 in - South 13.8 mph - N/A   Clear
8:30 AM 69.8 °F - 41.0 °F 35% 29.92 in - South 13.8 mph - N/A   Clear
9:00 AM 66.2 °F - 44.6 °F 46% 29.92 in - WNW 4.6 mph - N/A   Clear
9:20 AM 69.8 °F - 46.4 °F 43% 29.92 in - NW 9.2 mph - N/A   Clear
9:30 AM 69.8 °F - 46.4 °F 43% 29.92 in - NW 9.2 mph - N/A   Clear
10:00 AM 78.8 °F - 41.0 °F 26% 29.92 in - South 9.2 mph - N/A   Clear
10:21 AM 84.2 °F - 41.0 °F 22% 29.92 in - West 11.5 mph - N/A   Clear
10:30 AM 84.2 °F - 41.0 °F 22% 29.92 in - West 11.5 mph - N/A   Clear
11:00 AM 86.0 °F - 39.2 °F 19% 29.89 in - West 16.1 mph - N/A   Clear
11:20 AM 87.8 °F - 35.6 °F 16% 29.89 in - SW 16.1 mph - N/A   Clear
11:30 AM 87.8 °F - 35.6 °F 16% 29.89 in - SW 16.1 mph - N/A   Clear
12:00 PM 89.6 °F - 37.4 °F 16% 29.89 in - SW 28.8 mph - N/A   Clear
12:21 PM 89.6 °F - 37.4 °F 16% 29.86 in - SW 19.6 mph - N/A   Clear
12:30 PM 89.6 °F - 37.4 °F 16% 29.86 in - SW 19.6 mph - N/A   Clear
1:00 PM 91.4 °F - 37.4 °F 15% 29.83 in 6.2 mi SW 19.6 mph - N/A   Partly Cloudy
1:20 PM 93.2 °F - 33.8 °F 12% 29.83 in 6.2 mi SW 28.8 mph - N/A   Partly Cloudy
1:30 PM 93.2 °F - 33.8 °F 12% 29.83 in 6.2 mi SW 28.8 mph - N/A   Partly Cloudy
2:21 PM 93.2 °F - 33.8 °F 12% 29.80 in 6.2 mi SW 28.8 mph - N/A   Partly Cloudy
2:30 PM 93.2 °F - 33.8 °F 12% 29.80 in 6.2 mi SW 28.8 mph - N/A   Partly Cloudy
3:22 PM 93.2 °F - 35.6 °F 13% 29.77 in 6.2 mi SW 33.4 mph 49.5 mph N/A   Partly Cloudy
3:30 PM 93.2 °F - 35.6 °F 13% 29.77 in 6.2 mi SW 33.4 mph 49.5 mph N/A   Partly Cloudy
4:22 PM 95.0 °F - 35.6 °F 12% 29.80 in 6.2 mi SW 26.5 mph 40.3 mph N/A Fog Scattered Clouds
4:30 PM 95.0 °F - 35.6 °F 12% 29.80 in 6.2 mi SW 26.5 mph 40.3 mph N/A Fog Scattered Clouds
5:00 PM 68.0 °F - 59.0 °F 73% 29.80 in 6.2 mi ENE 38.0 mph - N/A Fog Scattered Clouds
5:22 PM 68.0 °F - 59.0 °F 73% 29.80 in 5.0 mi ENE 38.0 mph - N/A Fog Fog
5:30 PM 68.0 °F - 59.0 °F 73% 29.80 in 5.0 mi ENE 38.0 mph - N/A Fog Fog
6:00 PM 60.8 °F - 59.0 °F 94% 29.83 in 3.7 mi ENE 28.8 mph - N/A   Overcast
6:21 PM 60.8 °F - 57.2 °F 88% 29.83 in 5.0 mi ENE 28.8 mph - N/A   Light Drizzle
7:00 PM 59.0 °F - 57.2 °F 94% 29.83 in 3.1 mi East 28.8 mph 44.9 mph N/A   Light Drizzle
7:21 PM 57.2 °F - 55.4 °F 94% 29.86 in 0.5 mi East 31.1 mph - N/A Fog Light Drizzle
7:30 PM 57.2 °F - 55.4 °F 94% 29.86 in 0.5 mi East 31.1 mph - N/A Fog Light Drizzle
8:00 PM 57.2 °F - 55.4 °F 94% 29.86 in 5.0 mi ENE 31.1 mph - N/A Fog Light Drizzle
8:23 PM 55.4 °F - 53.6 °F 94% 29.89 in 5.0 mi East 28.8 mph 44.9 mph N/A Fog Fog
9:22 PM 53.6 °F - 53.6 °F 100% 29.92 in 3.7 mi ENE 28.8 mph 44.9 mph N/A Fog Light Drizzle
10:22 PM 53.6 °F - 51.8 °F 94% 29.95 in 2.5 mi ENE 28.8 mph 44.9 mph N/A   Light Drizzle
11:21 PM 51.8 °F - 51.8 °F 100% 29.98 in 2.5 mi ENE 33.4 mph - N/A   Light Drizzle